User: anonymous   Login
Location: Unspecified
(0.0000°N, 0.0000°E)
Time: 07:15:59
(UTC+00:00)
Language:

CUBESAT XI-V - Orbit

View from above orbital plane
View from above orbital plane
View from above satellite
View from above satellite

Ground track
Ground track

The orbit data is extracted from the following two-line orbital elements,

1 28895U 05043F   20047.80467102  .00000085  00000-0  25146-4 0  9990
2 28895  97.9887 187.7121 0015628 306.9093  53.0677 14.63737682763046
Epoch (UTC): 16 February 2020 19:18:43
Eccentricity: 0.0015628
inclination: 97.9887°
perigee height: 670 km
apogee height: 692 km
right ascension of ascending node: 187.7121°
argument of perigee: 306.9093°
revolutions per day: 14.63737682
mean anomaly at epoch: 53.0677°
orbit number at epoch: 76304

The dashed part of the orbit path shows where the satellite is in the earth's shadow,  

DLR